Casper-Natrona County International Airport
KCPR : now visible

Airfield :











YOU CAN JOIN US ON...

 
LOGIN :

Register | Disclaimer

   EN    FR    IT 

 









Legend :    VFR   Marginal VFR   IFR   Intensive IFR   Very Intensive IFR
Visi :
Ceiling :
>= 8 km
>= 3000ft
5 to 8 km
1000 to 3000 ft
1500m to 5 km
500 to 1000 ft
800 to 1500m
200 to 500 ft
< 800m
< 200 ft
Symbols :   Thunderstorms  Fog  Heavy snow  Heavy precipitations  Wind > 20 kt






- Airport Elevation : 5350 ft
- IATA code : CPR


KCPR - Casper-Natrona County International

CURRENT METAR :
  • 031253Z 24008KT 10SM CLR 18/12 A3019 RMK AO2 SLP151 T01830117

EXPIRED METARs :
  • 031153Z 25007KT 10SM FU CLR 16/12 A3018 RMK AO2 SLP148 T01610117 10189 20156 55002
  • 031053Z 22008KT 10SM FU CLR 18/12 A3016 RMK AO2 SLP140 T01780117

TAF KCPR
Valid from the 03 at 12:00 until the 04 at 12:00 UTC


031120Z 0312/0412 23009KT P6SM SCT110
FM032000 29011G19KT P6SM VCTS BKN100CB
FM040300 24006KT P6SM VCSH OVC080
FM040700 23007KT P6SM OVC100
FM041100 23005KT P6SM FEW100
KZDV FIR / North America



MET'MAP, your aeronautical weather chart ! - Copyright ORBIFLY December 2007 - Disclaimer

ORBIFLY MET'MAP TEAM :

Programming & Development : Alexandra Zaïnal
Concept & original design : Baudouin d'Aumeries
Assistance for programming : Marc-Olivier Méhu
Technical & hardware support : Manuel Goepfert

Contact : metmap@orbifly.com




SOURCES & CREDITS :

   NOAA       Earth
Advisory